Location: Northcutt
(34.7304°N, 84.4305°W)
Time: 17:25:02
(UTC+00:00)

SR - Pass Details

Date: 13 October 2022
Orbit: 577 x 874 km, 66.7° (Epoch: 05 December)

Event Time Altitude Azimuth Distance (km) Brightness Sun altitude
Rises 23:05:19 0° 197° (SSW) 3,400 ? -0.8°
Reaches altitude 10° 23:07:45 10° 195° (SSW) 2,489 ? -1.3°
Maximum altitude 23:13:32 67° 113° (ESE) 942 ? -2.5°
Drops below altitude 10° 23:19:22 10° 32° (NNE) 2,516 ? -3.7°
Sets 23:21:51 0° 30° (NNE) 3,439 ? -4.2°
